When you browse on this site, cookies collect data to enhance your experience and personalize the content and advertising you see.
Visit our Privacy Policy to learn more. By continuing to use the site, you agree to this use of cookies and data.
  • In United Kingdom
  • List of Countries
  • For 7 days
  • Water Temperature
  • Weather Map
  • Weather Widgets
  • user-avatar
    Login

    Hourly Weather Dhaka

    Today, 20 October, Sunday

    Time Temperature Precipitation Wind Pressure Humidity
    00:00 +28°C° 0 mm 3 mps 758 mmHg 66%
    01:00 +28°C° 0 mm 3 mps 758 mmHg 66%
    02:00 +28°C° 0 mm 3 mps 757 mmHg 67%
    03:00 +27°C° 0 mm 2 mps 757 mmHg 67%
    04:00 +27°C° 0 mm 2 mps 757 mmHg 67%
    05:00 +27°C° 0 mm 2 mps 757 mmHg 67%
    06:00 +27°C° 0 mm 2 mps 758 mmHg 71%
    07:00 +28°C° 0 mm 2 mps 758 mmHg 66%
    08:00 +30°C° 0 mm 2 mps 759 mmHg 62%
    09:00 +31°C° 0 mm 2 mps 759 mmHg 57%
    10:00 +32°C° 0 mm 2 mps 759 mmHg 53%
    11:00 +34°C° 0 mm 2 mps 758 mmHg 50%
    12:00 +36°C° 0 mm 3 mps 758 mmHg 44%
    13:00 +36°C° 0 mm 3 mps 757 mmHg 44%
    14:00 +36°C° 0 mm 3 mps 756 mmHg 45%
    15:00 +36°C° 0 mm 4 mps 756 mmHg 45%
    16:00 +34°C° 0 mm 3 mps 755 mmHg 50%
    17:00 +33°C° 0 mm 3 mps 755 mmHg 55%
    18:00 +30°C° 0 mm 3 mps 755 mmHg 60%
    19:00 +30°C° 0 mm 3 mps 756 mmHg 61%
    20:00 +29°C° 0 mm 3 mps 756 mmHg 63%
    21:00 +29°C° 0 mm 3 mps 757 mmHg 64%
    22:00 +29°C° 0 mm 3 mps 757 mmHg 67%
    23:00 +28°C° 0 mm 2 mps 757 mmHg 70%

    Tomorrow, 21 October, Monday

    Time Temperature Precipitation Wind Pressure Humidity
    00:00 +28°C° 0 mm 2 mps 757 mmHg 72%
    01:00 +28°C° 0 mm 2 mps 757 mmHg 74%
    02:00 +27°C° 0 mm 2 mps 756 mmHg 75%
    03:00 +27°C° 0 mm 2 mps 756 mmHg 76%
    04:00 +27°C° 0 mm 2 mps 756 mmHg 77%
    05:00 +27°C° 0 mm 2 mps 756 mmHg 78%
    06:00 +27°C° 0 mm 2 mps 756 mmHg 79%
    07:00 +28°C° 0 mm 2 mps 757 mmHg 73%
    08:00 +30°C° 0 mm 2 mps 757 mmHg 68%
    09:00 +31°C° 0 mm 2 mps 758 mmHg 62%
    10:00 +32°C° 0 mm 2 mps 757 mmHg 58%
    11:00 +34°C° 0 mm 3 mps 757 mmHg 54%
    12:00 +35°C° 0 mm 3 mps 756 mmHg 51%
    13:00 +35°C° 0 mm 3 mps 756 mmHg 50%
    14:00 +35°C° 0 mm 3 mps 755 mmHg 50%
    15:00 +36°C° 0 mm 4 mps 754 mmHg 50%
    16:00 +34°C° 0 mm 3 mps 754 mmHg 54%
    17:00 +33°C° 0 mm 3 mps 754 mmHg 59%
    18:00 +31°C° 0 mm 2 mps 754 mmHg 64%
    19:00 +30°C° 0 mm 2 mps 755 mmHg 65%
    20:00 +30°C° 0 mm 2 mps 755 mmHg 67%
    21:00 +30°C° 0 mm 2 mps 756 mmHg 68%
    22:00 +29°C° 0 mm 2 mps 756 mmHg 70%
    23:00 +29°C° 0 mm 2 mps 756 mmHg 72%

    Day after tomorrow, 22 October, Tuesday

    Time Temperature Precipitation Wind Pressure Humidity
    00:00 +28°C° 0 mm 1 mps 756 mmHg 74%
    01:00 +28°C° 0.1 mm 1 mps 755 mmHg 76%
    02:00 +28°C° 0.1 mm 1 mps 755 mmHg 78%
    03:00 +27°C° 0.1 mm 1 mps 755 mmHg 79%
    04:00 +27°C° 0 mm 1 mps 755 mmHg 80%
    05:00 +27°C° 0 mm 1 mps 755 mmHg 80%
    06:00 +26°C° 0 mm 1 mps 756 mmHg 81%
    07:00 +28°C° 0 mm 1 mps 756 mmHg 75%
    08:00 +27°C° 0 mm 0 mps 756 mmHg 68%
    09:00 +29°C° 0 mm 0 mps 757 mmHg 62%
    10:00 +32°C° 0 mm 1 mps 756 mmHg 56%
    11:00 +33°C° 0 mm 1 mps 756 mmHg 50%
    12:00 +35°C° 0 mm 2 mps 755 mmHg 44%
    13:00 +35°C° 0 mm 2 mps 755 mmHg 43%
    14:00 +36°C° 0 mm 2 mps 754 mmHg 42%
    15:00 +36°C° 0 mm 2 mps 754 mmHg 41%
    16:00 +34°C° 0 mm 2 mps 754 mmHg 44%
    17:00 +32°C° 0 mm 2 mps 754 mmHg 48%
    18:00 +31°C° 0 mm 2 mps 754 mmHg 51%
    19:00 +30°C° 0 mm 2 mps 754 mmHg 52%
    20:00 +29°C° 0 mm 2 mps 754 mmHg 53%
    21:00 +29°C° 0 mm 2 mps 755 mmHg 54%
    22:00 +28°C° 0 mm 2 mps 755 mmHg 55%
    23:00 +28°C° 0 mm 2 mps 755 mmHg 56%

    23 October, Wednesday

    Time Temperature Precipitation Wind Pressure Humidity
    00:00 +27°C° 0 mm 2 mps 755 mmHg 57%
    01:00 +27°C° 0 mm 2 mps 755 mmHg 58%
    02:00 +26°C° 0 mm 2 mps 755 mmHg 59%
    03:00 +26°C° 0 mm 2 mps 755 mmHg 59%
    04:00 +26°C° 0 mm 2 mps 755 mmHg 60%
    05:00 +26°C° 0 mm 2 mps 755 mmHg 60%
    06:00 +25°C° 0 mm 1 mps 755 mmHg 61%
    07:00 +27°C° 0 mm 1 mps 755 mmHg 57%
    08:00 +28°C° 0 mm 1 mps 756 mmHg 53%
    09:00 +30°C° 0 mm 1 mps 756 mmHg 48%
    10:00 +31°C° 0 mm 2 mps 756 mmHg 45%
    11:00 +32°C° 0 mm 2 mps 756 mmHg 41%
    12:00 +34°C° 0 mm 2 mps 755 mmHg 37%
    13:00 +35°C° 0 mm 2 mps 755 mmHg 37%
    14:00 +35°C° 0 mm 2 mps 754 mmHg 36%
    15:00 +35°C° 0 mm 2 mps 754 mmHg 35%
    16:00 +32°C° 0 mm 2 mps 753 mmHg 39%
    17:00 +31°C° 0 mm 2 mps 753 mmHg 43%
    18:00 +29°C° 0 mm 2 mps 753 mmHg 47%
    19:00 +29°C° 0 mm 2 mps 754 mmHg 50%
    20:00 +28°C° 0 mm 2 mps 754 mmHg 52%
    21:00 +27°C° 0 mm 2 mps 755 mmHg 55%
    22:00 +27°C° 0 mm 2 mps 755 mmHg 56%
    23:00 +26°C° 0 mm 2 mps 755 mmHg 57%

    24 October, Thursday

    Time Temperature Precipitation Wind Pressure Humidity
    00:00 +26°C° 0 mm 1 mps 755 mmHg 58%
    01:00 +26°C° 0 mm 1 mps 755 mmHg 58%
    02:00 +25°C° 0 mm 1 mps 755 mmHg 58%
    03:00 +25°C° 0 mm 1 mps 755 mmHg 58%
    04:00 +25°C° 0 mm 1 mps 755 mmHg 59%
    05:00 +25°C° 0 mm 1 mps 755 mmHg 59%
    06:00 +25°C° 0 mm 1 mps 755 mmHg 60%
    07:00 +26°C° 0 mm 1 mps 756 mmHg 56%
    08:00 +28°C° 0 mm 2 mps 756 mmHg 53%
    09:00 +29°C° 0 mm 2 mps 757 mmHg 49%
    10:00 +30°C° 0 mm 3 mps 757 mmHg 47%
    11:00 +33°C° 0 mm 3 mps 756 mmHg 44%
    12:00 +34°C° 0 mm 4 mps 756 mmHg 41%
    13:00 +33°C° 0 mm 5 mps 755 mmHg 44%
    14:00 +33°C° 0 mm 6 mps 755 mmHg 48%
    15:00 +32°C° 0 mm 7 mps 754 mmHg 51%
    16:00 +29°C° 0 mm 6 mps 754 mmHg 55%
    17:00 +28°C° 0 mm 5 mps 755 mmHg 59%
    18:00 +26°C° 0 mm 4 mps 755 mmHg 64%
    19:00 +26°C° 0 mm 4 mps 755 mmHg 66%
    20:00 +25°C° 0 mm 4 mps 756 mmHg 68%
    21:00 +25°C° 0 mm 3 mps 756 mmHg 70%
    22:00 +25°C° 0 mm 3 mps 756 mmHg 70%
    23:00 +25°C° 0 mm 3 mps 756 mmHg 71%

    25 October, Friday

    Time Temperature Precipitation Wind Pressure Humidity
    00:00 +25°C° 0 mm 3 mps 756 mmHg 71%
    01:00 +24°C° 0 mm 3 mps 756 mmHg 73%
    02:00 +24°C° 0 mm 2 mps 755 mmHg 76%
    03:00 +24°C° 0 mm 2 mps 755 mmHg 78%
    04:00 +23°C° 0 mm 2 mps 755 mmHg 79%
    05:00 +23°C° 0 mm 2 mps 755 mmHg 79%
    06:00 +23°C° 0 mm 1 mps 755 mmHg 80%
    07:00 +25°C° 0 mm 2 mps 756 mmHg 74%
    08:00 +26°C° 0 mm 2 mps 757 mmHg 68%
    09:00 +28°C° 0 mm 2 mps 757 mmHg 62%
    10:00 +29°C° 0 mm 2 mps 757 mmHg 57%
    11:00 +31°C° 0 mm 2 mps 757 mmHg 53%
    12:00 +32°C° 0 mm 2 mps 756 mmHg 48%
    13:00 +33°C° 0 mm 3 mps 756 mmHg 49%
    14:00 +33°C° 0 mm 3 mps 755 mmHg 50%
    15:00 +33°C° 0 mm 4 mps 755 mmHg 51%
    16:00 +30°C° 0 mm 4 mps 755 mmHg 58%
    17:00 +28°C° 0 mm 4 mps 755 mmHg 65%
    18:00 +26°C° 0 mm 4 mps 755 mmHg 72%
    19:00 +25°C° 0 mm 4 mps 756 mmHg 72%
    20:00 +25°C° 0 mm 3 mps 756 mmHg 72%
    21:00 +25°C° 0 mm 3 mps 757 mmHg 71%
    22:00 +25°C° 0 mm 3 mps 757 mmHg 74%
    23:00 +24°C° 0 mm 3 mps 757 mmHg 76%
    Show more